GFSSE_prec_cloud_156.txt.gz
Cloud_Cover
22 7 5 0 5 5 5 4 5 5 0 0 0 0 0 0 0 0 0 0 0 0 0 0 0 0 0 0 0 0 0 0 0 0 0 3 8 5 2 0 0 20 0
100 53 21 5 5 5 78 14 100 11 0 2 0 0 0 0 0 0 2 0 0 0 8 0 0 0 0 0 0 0 0 0 0 0 0 0 0 0 0 0 0 29 5
46 70 97 78 95 87 23 39 5 6 10 2 0 0 0 0 0 0 0 0 0 0 0 0 0 0 0 0 0 0 0 0 0 0 0 62 20 0 24 0 0 0 0
5 4 5 83 100 99 92 98 91 88 96 65 0 0 0 0 0 0 0 0 0 0 0 0 0 3 0 0 0 0 0 0 0 0 7 0 27 0 0 0 0 0 1
16 22 61 86 100 99 100 36 4 12 0 0 0 0 0 0 0 0 0 0 0 4 2 6 4 0 0 0 0 4 1 0 0 12 0 0 4 14 0 0 0 5 5
12 6 41 46 5 5 92 4 5 0 0 0 0 0 0 0 0 0 0 0 0 3 20 70 90 37 5 3 5 39 5 0 29 5 0 0 0 0 0 0 0 0 1
4 5 5 5 26 61 6 91 32 6 16 1 0 0 0 0 0 0 0 4 1 0 2 5 5 86 85 6 41 100 67 28 5 28 5 3 6 0 0 0 0 0 0
0 6 10 25 51 86 98 100 60 31 72 94 100 23 70 71 12 33 26 12 0 0 0 0 4 6 83 79 62 100 100 98 85 98 88 64 90 57 47 40 32 100 100
22 34 47 28 93 100 100 100 89 5 19 36 36 24 40 26 71 62 36 63 34 14 9 85 34 9 23 4 100 100 100 100 100 100 100 100 100 100 100 100 100 100 100
48 56 100 100 100 100 100 100 86 91 100 100 100 100 100 97 65 90 15 36 18 0 1 5 0 0 0 0 10 99 100 32 48 100 100 100 100 100 96 100 100 100 100
25 57 100 100 100 100 83 77 76 88 95 46 78 98 92 100 100 50 23 18 10 16 11 15 9 1 0 0 0 4 81 24 63 74 100 100 100 100 100 100 100 100 100
5 50 80 100 100 100 100 99 93 52 78 13 34 55 89 83 22 2 5 5 5 5 5 7 5 5 3 58 74 50 25 45 45 95 100 100 100 100 100 100 100 46 97
3 5 8 90 100 100 100 100 100 100 100 81 12 11 22 10 1 3 0 4 20 81 8 31 47 5 24 5 2 28 57 35 67 95 97 100 100 100 100 100 100 100 100
5 6 8 44 15 99 100 100 100 100 96 44 54 6 5 5 0 0 0 0 0 4 5 5 5 5 5 5 5 5 2 40 39 23 99 100 100 100 100 100 100 100 100
6 83 71 83 50 22 80 100 100 45 30 43 7 5 5 5 3 0 0 0 0 0 0 0 0 3 5 5 5 4 8 56 100 32 24 90 100 100 100 100 98 100 100
5 5 41 44 98 75 81 94 96 98 100 48 27 5 5 3 2 5 5 4 3 0 0 3 0 0 0 4 4 1 9 34 28 54 95 100 100 100 100 100 100 83 100
5 5 5 5 43 100 65 60 51 97 54 5 5 5 5 4 0 0 0 0 0 0 0 1 0 0 0 0 0 0 0 0 3 45 59 89 100 78 100 100 100 100 100
11 5 9 5 6 55 5 5 13 54 76 76 16 5 5 18 4 1 0 0 0 0 0 0 0 4 4 0 4 5 3 0 0 0 0 24 95 100 100 100 100 100 100
5 76 90 66 35 6 5 5 5 42 92 73 95 79 9 5 5 5 4 0 0 0 0 4 0 4 7 42 13 56 54 36 3 0 0 0 24 60 100 100 100 100 100
99 94 5 5 5 5 11 5 27 39 15 5 6 7 5 5 0 0 0 0 1 2 100 32 5 6 83 99 70 100 100 100 100 3 0 44 41 42 41 100 100 100 100
94 36 82 76 63 5 5 6 12 5 5 18 5 29 5 2 0 4 5 5 0 3 24 3 51 100 100 94 97 55 21 66 5 22 5 32 100 92 100 100 100 100 100
100 100 100 40 37 7 5 5 5 21 17 5 5 5 5 5 4 4 5 4 5 4 4 8 24 68 83 94 71 23 8 0 0 0 12 34 67 42 97 100 100 99 100
100 100 86 71 37 12 61 48 11 8 5 5 5 5 5 23 33 5 5 5 5 5 7 27 79 9 10 90 14 18 2 0 0 0 0 0 0 0 0 21 89 100 92
95 98 96 23 43 64 18 66 48 49 78 62 21 5 96 100 100 5 25 88 57 82 76 100 100 58 94 98 100 100 16 7 5 3 0 2 0 0 0 2 2 0 6
74 76 74 75 94 86 98 98 99 68 10 5 5 5 5 11 32 97 99 100 100 100 100 100 100 100 100 95 91 46 100 11 11 8 5 0 0 0 34 19 5 29 8
100 100 100 30 5 27 46 27 23 100 48 5 5 100 60 33 94 95 98 100 100 100 100 95 48 98 100 100 100 29 5 8 5 19 15 73 6 0 5 60 35 5 12

GFSSE_prec_cloud_159.txt.gz
Cloud_Cover
4 25 52 48 92 98 85 52 6 40 5 2 0 0 0 0 0 0 0 0 0 0 0 0 0 0 0 0 0 0 0 0 0 0 0 0 6 0 0 0 0 44 0
0 17 58 100 100 76 80 48 18 11 5 3 4 0 0 0 0 0 0 0 0 0 13 0 1 3 0 0 0 0 0 0 0 0 0 0 0 0 0 0 0 61 0
0 0 0 3 44 100 100 59 74 60 91 8 5 0 0 0 0 0 0 0 0 10 16 0 0 0 0 0 0 0 0 0 0 0 0 9 78 19 0 0 0 2 0
0 0 2 15 5 20 89 51 25 5 5 3 0 0 0 0 0 0 0 0 0 0 0 0 0 4 5 0 0 0 0 0 0 0 3 27 67 0 0 0 0 0 0
0 1 1 3 67 100 96 41 21 5 4 2 2 0 0 0 0 0 0 0 0 0 0 4 1 5 5 5 5 5 0 0 0 2 12 10 25 1 3 5 0 0 5
24 12 40 43 71 49 5 5 5 5 5 5 0 0 0 0 0 0 0 0 0 4 8 2 0 0 5 83 95 11 5 5 5 2 100 7 56 64 5 5 0 2 0
55 32 15 5 3 0 5 5 5 5 5 5 5 3 0 0 0 0 0 0 0 0 0 0 0 0 1 5 9 12 6 6 100 100 86 59 100 98 85 45 0 4 9
56 59 30 44 39 36 46 95 62 99 77 32 7 0 0 0 9 23 28 18 14 11 4 5 5 5 3 0 0 2 19 68 68 100 100 100 78 16 90 100 100 100 100
39 68 32 26 76 100 100 100 100 100 98 26 32 8 14 77 100 100 98 71 23 13 7 16 5 0 5 5 5 2 0 5 41 13 100 100 100 100 100 100 100 100 93
71 100 89 41 58 100 100 100 98 100 100 100 100 100 87 72 48 0 2 38 39 13 2 5 1 2 4 5 5 5 7 11 5 54 100 76 87 100 100 100 100 88 100
98 100 100 100 100 100 99 96 91 100 75 17 61 75 99 100 94 77 43 9 2 0 0 4 4 5 5 21 34 5 26 2 76 80 87 100 93 99 100 100 100 100 100
6 88 100 100 100 97 96 100 87 61 92 100 100 100 100 100 58 48 5 0 0 0 0 0 5 5 15 74 98 78 20 81 38 25 39 29 46 88 100 100 100 100 100
1 5 87 100 100 34 49 45 100 99 94 100 100 100 100 100 39 22 23 24 0 0 0 1 11 44 16 5 32 35 89 94 24 73 15 34 45 5 93 100 100 100 100
4 5 14 49 42 24 5 82 98 11 100 100 100 88 56 40 6 5 0 0 0 0 0 0 1 5 5 6 25 60 90 16 50 56 61 93 18 89 65 64 100 100 100
1 0 1 5 5 3 5 47 90 100 82 51 56 67 42 33 42 5 0 0 0 0 0 0 0 0 0 1 4 28 53 10 6 43 27 90 96 100 99 97 100 100 100
3 4 2 4 1 0 4 2 3 5 3 5 4 5 25 7 1 0 1 0 0 0 3 2 0 0 0 0 3 1 2 5 5 18 90 100 100 100 100 100 100 100 100
29 5 6 5 0 0 2 2 0 0 5 5 5 5 4 3 3 5 0 0 5 5 0 0 0 0 0 0 0 0 0 2 2 0 0 1 70 99 100 100 100 100 100
84 5 5 5 16 33 5 4 5 5 5 5 5 6 29 16 25 25 10 32 5 5 3 0 0 0 0 0 0 0 5 4 5 0 0 0 0 57 74 77 100 98 100
100 74 14 14 13 5 5 44 43 5 20 80 88 67 86 99 82 75 46 21 21 5 5 0 0 3 0 0 0 0 0 2 4 2 0 1 26 4 0 0 12 72 100
100 100 100 100 100 100 100 63 5 5 31 93 97 94 67 29 61 92 89 13 15 35 4 5 2 1 0 0 1 6 59 14 3 72 100 90 98 68 1 0 0 4 23
100 100 100 100 100 100 100 100 71 5 79 98 100 87 39 9 13 7 5 5 5 5 5 96 100 73 0 2 5 5 5 26 95 99 80 47 18 40 35 5 0 4 59
100 100 100 100 100 100 100 90 94 37 16 7 6 41 24 26 34 30 100 61 14 7 5 5 29 17 65 100 80 15 19 4 15 7 5 25 23 25 13 1 1 1 45
100 100 100 100 100 100 100 78 91 68 42 87 46 28 31 71 66 36 88 5 3 0 5 40 5 15 5 4 6 34 71 98 32 3 5 14 53 4 0 5 0 0 0
100 100 100 100 100 100 100 100 99 100 100 76 97 100 72 100 48 6 25 6 60 5 5 19 41 9 41 5 28 100 86 87 26 5 34 84 7 5 4 3 2 0 0
100 100 100 100 99 100 70 96 100 60 99 90 70 20 10 7 5 18 10 96 100 100 42 100 90 63 80 100 100 100 100 82 90 36 88 81 43 5 5 5 5 5 5
100 100 100 83 80 81 89 100 100 100 99 94 69 71 94 100 96 37 44 100 100 100 100 100 100 100 100 100 100 100 100 100 100 100 90 42 5 20 5 43 5 5 5

GFSSE_prec_cloud_162.txt.gz
Cloud_Cover
5 1 0 4 4 0 12 100 100 100 100 42 5 5 5 0 0 0 0 0 0 0 0 0 0 0 0 0 0 0 0 0 0 0 0 0 0 0 0 0 0 50 0
0 0 0 0 0 4 5 7 68 76 92 18 5 6 3 0 0 0 0 0 0 0 2 0 0 0 0 0 0 0 0 0 0 0 0 0 0 0 0 0 0 0 0
0 0 0 0 0 5 5 5 15 66 77 90 20 5 0 0 0 0 0 0 0 0 0 0 0 0 4 4 0 0 0 0 0 0 0 11 76 2 5 99 95 4 0
0 0 0 0 0 4 0 0 26 100 90 27 5 13 5 1 0 0 0 0 0 0 0 0 0 0 0 0 0 5 4 2 0 0 0 12 100 49 5 9 1 0 0
3 0 0 0 0 0 0 5 12 30 11 5 5 5 0 5 3 0 1 0 0 0 0 1 0 0 0 0 0 0 2 5 4 0 7 40 35 3 5 4 2 0 5
3 0 33 0 0 5 1 4 0 0 3 5 5 5 14 5 6 5 5 4 0 0 1 5 0 0 0 0 0 0 5 5 9 5 6 100 9 9 6 5 5 9 5
3 0 10 0 3 5 0 0 12 5 4 19 11 87 66 18 5 5 5 5 4 0 0 0 0 2 0 0 0 0 0 2 5 11 11 73 100 98 20 5 99 25 19
3 5 26 35 22 15 8 27 27 13 5 18 61 81 40 5 9 15 17 12 14 2 0 0 0 0 4 0 0 0 5 4 4 3 4 12 62 85 100 100 100 51 85
30 5 27 72 97 86 44 77 99 100 99 100 98 62 20 60 85 98 98 39 16 0 0 2 0 4 0 3 1 0 0 0 4 5 3 5 87 93 100 96 100 100 100
69 5 5 25 52 78 83 100 100 100 100 100 100 91 5 1 2 0 8 26 41 8 5 0 0 0 0 0 2 0 0 4 6 0 0 0 59 100 100 100 100 94 100
96 93 68 40 10 31 33 29 22 5 5 75 100 78 99 99 100 100 100 91 5 2 0 0 1 5 5 5 4 59 5 5 1 19 1 28 5 54 96 100 100 100 100
100 100 100 100 100 28 32 21 38 43 81 94 68 92 100 100 100 100 100 47 17 12 3 1 2 1 5 5 43 56 75 43 40 97 45 66 74 44 50 78 100 100 100
100 100 100 100 100 100 100 100 100 96 84 100 100 100 100 100 100 100 100 35 20 6 7 5 3 38 2 5 6 23 3 6 70 94 94 100 34 12 12 100 100 100 100
58 92 99 100 100 80 5 5 20 5 39 6 20 50 100 100 97 27 5 4 5 5 5 2 0 0 0 0 0 5 5 5 5 5 24 16 5 5 20 94 100 100 100
100 100 2 92 45 41 5 5 3 5 5 5 13 5 5 5 5 1 5 5 5 5 5 2 0 0 0 0 0 0 5 5 5 5 3 5 5 7 100 100 100 100 97
91 62 94 85 69 53 5 5 5 5 5 5 5 3 0 3 24 5 4 4 5 5 5 5 2 0 0 0 0 0 0 0 0 0 2 0 14 77 58 65 67 96 100
20 90 86 5 5 26 5 4 1 5 3 29 40 5 5 52 34 5 6 5 5 5 4 1 2 0 0 0 0 0 0 0 0 0 0 0 42 80 78 98 99 100 89
100 98 62 40 9 20 5 5 5 9 78 85 5 61 74 31 7 9 10 25 78 10 10 5 5 5 5 0 0 0 2 7 1 0 0 0 0 0 3 38 96 100 100
100 100 66 94 100 100 9 9 30 98 100 100 100 100 100 85 47 82 94 50 51 5 3 3 2 5 72 8 0 0 2 28 95 7 0 0 0 1 2 0 5 81 99
100 100 100 100 100 100 100 100 100 100 100 100 100 100 100 31 11 84 72 7 5 47 81 90 33 5 23 5 0 0 0 0 0 1 7 17 3 0 0 0 0 1 60
100 100 100 100 100 100 100 100 100 100 100 100 100 100 49 74 84 69 19 46 36 4 5 4 3 0 2 3 0 5 1 3 5 4 83 6 3 0 0 4 1 88 64
100 100 100 100 100 100 100 100 100 100 100 100 100 100 100 100 50 94 89 28 7 23 5 6 5 5 12 5 5 24 100 53 10 5 4 5 34 2 0 0 0 0 4
100 100 100 100 100 100 100 100 100 100 100 100 100 100 100 79 80 94 92 100 100 64 14 71 34 7 39 10 63 13 57 93 74 14 5 6 3 2 1 0 3 2 68
97 100 100 100 100 100 100 100 100 100 100 100 66 24 84 100 91 77 100 100 83 23 83 63 40 7 7 39 69 70 16 54 92 96 44 5 75 5 32 51 5 19 54
100 100 100 100 100 100 100 100 100 43 51 40 77 42 58 100 100 100 100 98 77 96 75 82 8 39 53 89 98 100 100 100 100 95 100 100 100 79 60 8 7 11 23
100 100 100 100 100 100 100 100 100 100 100 100 100 100 100 95 60 56 61 65 82 100 89 89 100 84 100 100 100 100 100 100 100 100 100 66 72 60 6 7 5 5 3

GFSSE_prec_cloud_165.txt.gz
Cloud_Cover
2 1 1 0 0 0 0 0 3 1 5 40 19 91 96 87 5 8 5 3 0 0 0 0 0 0 0 0 0 0 0 0 0 0 0 0 0 0 0 0 0 0 0
1 5 4 2 0 0 0 0 0 0 5 71 95 95 8 65 69 57 46 5 0 0 0 0 0 0 0 0 0 0 0 0 0 0 0 0 1 4 0 0 0 0 0
18 30 82 35 0 0 0 0 1 0 2 78 93 98 69 7 5 26 5 5 5 0 0 0 0 0 0 0 0 0 0 0 0 0 0 0 19 0 0 0 0 0 2
5 15 100 48 0 0 0 5 6 5 4 8 42 5 5 5 5 5 5 0 0 0 0 0 0 0 0 0 0 0 0 0 0 0 0 0 2 0 0 0 5 5 5
6 92 96 65 3 0 0 4 16 0 2 16 19 4 1 5 5 5 9 30 5 5 5 0 0 0 0 0 0 0 0 0 0 0 2 0 0 0 0 0 2 5 4
1 100 100 98 5 3 0 0 4 5 5 5 20 72 36 35 62 91 88 71 5 5 5 4 2 0 0 0 0 0 0 0 0 0 23 9 10 5 2 5 4 0 3
27 100 100 100 94 9 5 1 5 5 78 69 41 49 64 63 92 51 79 93 22 52 10 5 4 0 0 0 0 1 50 5 1 0 0 0 51 2 5 85 47 34 6
100 55 100 100 100 4 0 1 5 5 5 8 64 100 100 100 89 69 46 31 22 20 5 5 5 0 0 0 0 0 1 0 0 0 0 0 0 1 4 28 100 79 74
31 91 100 100 100 58 6 5 5 3 17 33 78 76 5 55 70 59 76 13 5 7 3 2 1 0 2 4 0 0 0 0 0 0 0 0 0 0 4 22 100 100 85
95 96 100 100 100 100 100 100 100 100 100 100 98 11 47 37 82 36 100 100 98 100 70 5 5 2 4 5 17 0 0 0 24 10 0 0 0 3 5 5 4 83 100
76 100 100 100 100 100 100 100 85 46 70 87 52 20 61 80 53 100 100 100 99 96 99 30 27 11 4 5 2 14 88 10 5 1 0 5 32 83 98 93 76 64 74
100 100 100 100 100 51 8 7 45 5 5 7 23 99 71 99 10 9 95 91 100 100 100 74 10 3 0 5 5 30 2 0 76 39 4 2 0 5 66 100 100 100 100
100 100 100 100 100 97 99 30 51 94 82 100 100 100 100 100 100 97 100 52 5 6 5 5 5 2 0 0 0 78 53 0 17 87 100 60 1 41 6 5 72 97 88
100 100 100 100 100 100 92 86 100 96 92 100 100 100 93 99 82 72 99 5 5 5 6 5 5 5 0 4 0 0 0 0 0 0 0 1 0 2 7 5 7 79 95
81 70 100 100 100 89 15 66 33 12 90 44 99 36 22 15 6 60 5 5 5 5 4 3 1 5 5 5 4 1 0 0 2 0 0 15 27 34 16 59 43 26 64
100 99 100 100 92 100 98 100 76 98 45 23 76 79 51 5 64 8 6 5 6 10 60 33 17 5 3 5 0 4 2 4 1 3 0 52 74 99 100 100 98 91 73
100 99 100 100 100 100 100 100 85 90 82 99 21 5 5 7 26 26 35 6 76 19 48 69 35 89 17 2 0 0 0 0 0 4 11 3 0 7 32 99 100 100 100
5 28 84 94 100 83 100 100 100 100 100 95 97 100 94 100 100 100 100 100 35 12 6 7 10 64 61 30 5 1 1 0 0 0 0 0 0 0 0 12 51 100 100
4 0 5 60 82 100 100 100 100 100 100 100 100 100 100 100 100 100 100 100 100 100 98 100 99 100 80 6 3 12 3 5 0 0 0 0 1 3 0 0 0 11 48
5 24 90 99 94 100 100 100 100 100 100 100 100 100 100 100 100 100 100 100 100 100 100 43 85 82 66 48 92 60 2 0 5 23 40 51 5 16 2 53 85 14 0
0 12 44 64 100 100 100 100 100 100 100 100 100 100 100 100 100 100 100 100 100 100 100 88 28 100 100 100 100 100 100 11 5 5 5 2 5 2 5 5 5 3 5
7 10 29 54 99 100 100 100 100 100 100 100 100 100 100 100 100 100 99 100 100 98 10 92 100 100 95 98 92 100 63 20 16 26 5 5 20 10 5 3 90 31 13
96 100 100 100 100 100 75 100 100 100 100 100 100 100 100 100 100 100 100 100 100 100 97 98 100 100 64 5 5 5 8 5 12 50 27 5 4 5 29 32 0 25 6
94 67 69 100 100 98 100 100 100 100 99 40 99 100 100 100 100 100 100 79 20 53 96 73 27 16 5 5 12 99 56 69 5 22 12 8 13 10 65 50 13 5 6
100 100 100 100 100 85 100 100 100 99 86 100 100 100 100 100 100 98 61 85 82 98 100 90 6 8 20 18 39 24 100 78 98 99 98 99 89 100 100 100 100 100 100
100 100 100 100 100 100 100 100 100 100 100 100 100 100 100 100 100 97 100 100 100 100 100 100 100 68 100 99 68 67 57 93 76 95 100 100 93 96 99 100 94 44 4

GFSSE_prec_cloud_168.txt.gz
Cloud_Cover
3 2 5 57 100 91 36 4 0 0 0 0 0 2 5 97 44 12 32 5 5 5 8 5 2 0 0 0 0 0 0 0 0 0 0 4 0 0 0 2 0 0 0
4 5 6 97 100 100 100 5 0 0 0 5 5 49 31 2 5 5 9 6 5 0 0 0 0 0 0 0 0 0 0 0 0 0 0 0 0 0 0 0 0 0 0
3 2 5 85 100 100 100 5 5 0 5 5 5 22 13 9 6 5 5 1 3 4 2 2 0 0 0 0 0 0 0 0 0 0 0 0 0 0 0 0 0 0 0
60 5 5 66 100 100 100 12 4 5 16 4 1 5 84 62 2 3 2 5 8 17 5 9 5 5 4 0 0 0 0 0 0 0 0 0 0 0 0 0 0 0 0
5 2 17 100 99 100 100 66 5 1 2 5 5 5 22 5 5 5 8 62 70 83 83 28 8 9 5 3 0 0 0 0 0 0 0 0 2 0 0 0 3 5 1
0 6 62 22 60 42 100 92 1 0 1 5 5 5 5 5 9 99 100 99 100 100 98 86 50 41 5 5 5 0 0 0 0 0 92 0 0 0 0 0 5 5 3
5 98 98 55 64 38 100 22 5 3 5 5 4 0 5 99 19 67 83 70 23 22 44 5 31 23 5 5 5 3 0 0 0 1 0 0 0 0 0 0 5 6 5
27 100 100 100 100 88 100 91 30 5 9 21 2 1 5 2 4 10 9 12 12 47 23 5 6 15 5 5 5 5 4 0 3 2 0 0 0 0 5 2 19 70 8
23 100 100 100 100 99 100 100 100 100 14 6 21 9 5 5 5 14 32 28 7 80 94 6 82 51 13 14 5 3 5 0 18 19 5 4 0 0 2 9 70 57 53
78 92 100 100 100 100 100 100 100 100 59 100 29 5 21 21 48 5 11 14 57 100 100 100 100 100 100 100 99 5 0 0 0 1 0 4 5 3 9 5 77 100 100
100 100 100 100 100 100 100 100 100 100 100 100 78 27 5 66 96 96 64 94 8 62 99 35 17 53 100 70 5 5 4 19 0 4 19 1 5 5 4 29 6 31 90
100 100 100 100 100 100 100 100 100 100 44 6 9 21 5 6 35 91 6 6 15 90 100 100 100 8 5 5 5 6 3 5 1 3 5 5 5 4 2 4 23 4 5
100 100 100 100 100 100 100 100 100 100 38 6 6 56 18 88 47 19 39 77 61 100 100 60 9 37 16 5 5 5 5 3 5 5 5 10 5 0 0 0 0 11 84
98 100 92 100 100 98 100 100 100 100 96 99 100 100 100 100 87 98 92 61 12 8 31 6 6 10 33 59 8 5 5 2 5 35 18 6 0 3 4 7 8 5 6
100 100 89 67 26 78 59 100 100 100 100 100 100 100 100 89 95 21 5 5 5 8 8 21 11 5 24 9 5 18 5 4 5 6 100 100 99 100 100 100 100 100 77
91 100 15 48 62 80 92 100 100 100 100 100 100 100 100 100 78 100 100 62 67 36 5 7 37 28 30 33 63 25 4 2 3 6 90 99 98 51 59 94 88 79 86
63 100 18 59 100 48 42 33 40 6 100 100 100 100 100 100 100 87 77 18 6 5 27 30 100 100 100 99 95 99 13 10 4 28 19 39 97 95 44 32 41 100 100
75 98 39 23 38 100 53 54 13 37 77 100 100 100 100 100 100 100 100 100 78 100 100 100 100 100 100 100 85 21 9 3 10 26 7 81 100 100 97 2 14 95 100
76 63 48 8 5 83 100 33 4 75 100 100 100 100 100 100 100 100 100 100 100 100 100 100 100 100 100 64 89 14 5 4 3 13 17 94 45 44 64 6 5 8 72
66 100 38 8 2 91 100 64 100 100 100 100 100 100 100 100 100 100 100 100 100 100 100 100 100 100 100 59 85 11 6 5 83 96 63 5 5 5 5 5 8 22 48
35 94 100 93 8 64 81 23 5 81 100 100 100 100 100 100 100 100 100 100 100 100 100 100 100 100 100 97 63 33 5 98 99 5 44 10 5 5 14 93 54 96 7
100 96 41 5 38 44 11 5 14 14 82 100 97 100 100 100 100 100 100 100 100 100 100 100 100 100 96 27 10 5 5 23 71 81 87 30 5 9 10 5 6 68 44
100 98 98 100 100 72 11 64 14 47 53 53 28 47 94 71 92 100 83 100 97 99 100 100 100 52 76 77 74 100 100 100 100 100 59 6 4 17 5 43 64 5 6
100 100 100 100 85 88 67 66 28 94 79 93 84 100 97 98 34 64 98 100 100 100 100 100 93 90 92 63 74 100 100 100 24 95 51 5 5 5 5 5 7 4 5
78 100 100 100 100 45 100 64 97 98 54 100 100 100 100 100 100 100 100 100 100 100 100 100 100 99 99 100 100 100 100 100 75 7 32 63 34 21 5 54 8 96 12
100 100 100 100 100 100 100 100 100 100 100 100 100 100 100 100 91 100 99 67 99 100 99 100 100 100 100 100 99 100 100 100 92 96 100 99 43 52 26 76 100 100 100

GFSSE_prec_cloud_171.txt.gz
Cloud_Cover
5 18 1 1 0 0 3 5 5 1 2 0 0 5 5 1 0 4 5 5 5 14 2 0 0 0 0 0 0 0 0 0 0 0 0 0 4 4 0 0 0 0 0
4 37 5 0 4 5 5 5 5 5 0 0 0 0 25 13 0 0 1 5 5 2 0 4 0 0 0 0 1 0 0 0 0 0 0 0 0 8 2 3 0 0 0
11 31 40 5 5 5 4 5 98 9 0 0 4 5 5 5 0 0 0 1 0 0 5 5 5 21 44 5 0 0 0 0 0 0 0 0 0 0 0 0 0 0 0
4 74 57 100 70 6 5 15 100 55 2 0 4 3 1 5 0 0 0 0 2 22 5 30 99 100 52 11 5 2 0 0 0 0 0 0 0 0 0 0 0 4 4
2 3 21 25 73 98 46 5 95 74 5 3 5 3 5 5 0 4 4 28 32 100 100 93 20 7 22 5 5 5 5 0 0 0 0 0 0 0 0 0 0 0 0
0 0 21 100 100 100 100 13 22 82 5 0 5 5 5 2 10 0 0 1 5 14 6 40 63 12 5 5 25 15 5 0 0 0 0 0 0 0 0 0 0 0 0
2 4 99 99 100 99 94 80 89 100 27 5 24 3 1 0 10 0 0 0 0 5 5 4 3 5 5 5 5 5 5 4 0 0 0 0 0 0 0 0 0 5 5
4 5 49 10 99 100 100 100 100 100 99 95 84 11 4 10 16 10 12 2 0 0 0 2 5 2 0 2 2 1 3 19 46 6 0 0 0 2 0 0 0 2 81
21 26 37 20 26 100 100 100 100 100 95 80 18 13 15 6 6 14 28 18 1 4 5 5 84 72 11 5 5 34 99 100 9 8 2 0 0 0 4 4 0 0 5
52 71 97 94 74 100 100 100 100 46 27 84 100 16 5 96 76 25 5 5 86 80 21 71 42 52 84 96 60 100 97 2 1 5 18 0 0 0 0 0 0 0 4
84 100 87 92 100 100 100 92 94 47 49 93 94 21 5 9 55 23 5 21 32 83 33 5 42 99 91 100 100 5 4 2 5 5 6 5 5 0 3 5 1 0 0
100 100 87 80 100 98 98 100 89 61 56 90 15 44 14 23 99 100 75 100 100 82 13 51 100 100 100 100 16 5 5 5 5 6 15 5 5 5 5 5 5 0 46
100 67 99 100 98 100 87 100 100 100 93 47 86 71 100 100 100 100 100 100 100 100 82 100 87 100 25 18 11 5 4 5 4 5 1 4 5 4 5 5 5 5 1
100 100 100 95 35 57 100 100 82 66 40 46 100 100 100 100 100 100 100 100 100 100 25 18 5 5 16 84 26 5 5 28 5 82 100 34 8 11 65 28 79 31 50
100 100 100 100 100 98 84 61 65 38 84 68 96 93 64 99 100 100 100 100 100 100 100 79 69 24 42 5 5 5 5 5 15 100 100 100 83 92 100 100 100 100 95
100 100 100 100 76 65 78 61 48 64 100 99 100 100 100 100 100 100 100 100 100 100 55 26 8 5 5 5 12 53 96 100 100 100 100 100 96 100 100 100 100 100 100
100 100 100 97 60 31 20 24 29 62 100 100 100 100 100 100 100 100 100 100 100 100 100 76 16 70 98 100 100 100 100 100 100 100 31 54 42 55 68 95 100 100 100
100 100 100 57 5 5 2 28 80 53 36 88 100 100 100 100 100 100 100 100 100 100 100 100 100 100 100 100 100 100 100 100 67 10 5 32 53 23 4 8 84 100 100
100 100 100 96 10 24 17 40 99 70 22 4 0 11 73 100 100 100 100 100 100 100 100 100 100 100 100 100 100 100 100 100 64 40 9 5 4 5 5 8 6 70 92
100 100 100 78 22 23 99 99 100 98 49 26 4 5 5 36 98 100 100 100 100 100 100 100 100 100 100 100 100 100 100 76 100 95 89 38 32 5 90 100 100 100 100
98 100 92 89 100 100 100 100 100 100 100 88 5 92 13 5 5 100 100 100 100 100 100 100 100 100 100 100 100 22 86 100 100 100 79 16 5 100 100 100 100 100 90
100 100 97 51 100 100 100 100 100 100 100 100 81 99 97 40 58 51 82 100 100 100 100 100 100 100 90 99 100 100 100 100 100 75 37 38 100 100 100 100 100 100 99
100 100 95 100 89 80 100 100 100 100 93 58 95 59 79 89 87 51 83 52 98 100 100 100 100 100 100 100 100 100 28 33 6 88 99 100 100 100 100 88 74 89 55
100 100 100 100 100 100 100 100 100 100 100 65 83 97 100 100 38 26 78 99 100 83 100 100 98 91 100 98 49 18 24 47 60 44 30 80 91 76 100 100 100 63 12
100 100 100 100 100 100 100 100 100 100 100 100 98 68 62 81 97 73 69 98 100 100 92 100 100 100 100 100 100 82 76 65 100 100 100 81 87 82 96 98 100 100 100
100 100 100 100 100 100 100 100 100 100 97 97 74 92 72 100 90 99 98 100 100 100 100 100 100 100 100 100 100 100 100 100 100 72 75 56 100 100 100 100 100 100 100

GFSSE_prec_cloud_174.txt.gz
Cloud_Cover
0 30 20 4 0 0 0 0 0 0 0 0 0 0 0 5 5 4 0 3 5 5 5 6 5 0 0 0 0 0 0 0 0 0 0 0 0 0 0 4 5 5 6
8 48 16 5 16 43 5 4 0 0 0 0 0 0 2 5 5 5 0 0 5 24 49 5 0 0 0 0 0 0 0 0 0 0 0 0 0 0 0 0 0 0 0
28 40 9 67 5 5 5 4 0 2 4 0 0 0 5 1 1 5 0 0 0 5 15 1 8 5 5 0 4 4 2 0 0 0 0 0 0 0 0 0 0 0 0
19 46 73 89 20 58 5 5 3 1 4 3 0 1 4 1 4 5 0 0 0 1 2 5 5 10 38 12 5 5 5 5 5 0 0 0 0 0 0 0 0 0 4
11 14 54 6 2 5 33 5 6 17 5 5 2 4 5 1 10 2 0 2 4 5 14 49 80 13 5 5 5 5 3 2 3 2 0 0 0 0 0 0 0 0 1
5 14 36 14 2 5 61 99 99 70 73 100 31 3 5 0 18 0 0 0 0 0 2 13 33 5 4 4 4 5 5 5 5 5 0 0 1 0 0 0 0 0 0
9 37 44 9 4 5 16 99 100 51 84 100 54 6 5 4 5 0 0 0 0 0 0 0 0 0 0 0 0 0 0 0 0 5 5 13 2 0 0 0 0 0 0
6 34 39 9 5 5 5 11 84 100 99 75 5 5 14 18 6 0 2 2 0 0 0 0 0 0 0 2 3 0 0 0 5 38 10 0 0 0 0 0 0 0 0
11 23 48 39 10 24 36 26 98 95 100 31 23 15 18 10 2 2 3 5 1 4 4 5 5 4 4 5 5 4 5 84 100 100 0 0 0 0 0 0 0 0 0
38 37 86 54 41 33 18 30 100 43 15 27 26 8 5 8 7 7 4 12 5 3 5 10 46 5 3 0 5 5 29 91 67 4 5 0 0 0 0 0 0 0 0
46 14 100 100 57 48 46 83 96 88 75 47 43 49 34 32 9 5 3 5 5 5 5 14 37 6 5 2 4 8 32 7 5 17 0 0 0 0 2 4 4 0 1
54 14 98 100 100 58 80 100 100 100 100 100 75 36 24 28 17 20 48 7 13 48 52 84 61 9 25 12 22 72 6 7 2 5 10 4 0 0 3 0 0 2 1
7 15 100 100 100 37 42 55 62 97 93 43 39 54 97 99 100 100 100 95 89 100 91 17 62 20 33 25 7 5 4 2 5 49 51 0 4 6 13 7 9 76 37
7 92 100 92 100 54 6 54 100 100 94 100 49 44 97 100 100 100 100 100 100 100 100 100 100 97 100 100 30 30 5 1 98 100 100 3 0 0 90 93 50 97 95
100 100 100 10 100 98 49 100 100 100 100 95 50 46 14 31 99 100 100 100 100 100 100 100 100 100 100 84 99 73 16 38 100 69 100 88 83 52 64 89 99 93 100
99 100 94 88 100 100 100 100 100 100 66 67 98 84 47 28 95 99 50 100 100 100 100 100 100 100 100 100 100 100 100 94 98 100 100 100 100 100 65 99 100 90 84
100 83 72 100 100 100 100 100 100 73 57 51 86 70 16 2 4 100 100 100 100 100 100 100 100 100 100 100 100 100 100 100 100 100 100 100 100 100 100 100 100 100 100
100 100 100 100 100 100 100 100 100 78 60 53 100 58 5 4 2 0 5 15 58 42 100 100 100 100 100 100 100 100 100 100 100 100 100 100 98 100 100 100 99 58 57
100 100 100 100 100 100 92 98 100 100 100 100 100 100 100 96 8 5 5 6 5 38 94 79 100 76 7 34 64 100 100 100 100 100 100 100 100 95 100 100 100 100 60
100 100 100 100 100 34 36 58 100 100 100 100 100 100 100 100 100 24 62 6 10 28 36 86 100 100 100 100 100 100 100 100 100 100 100 100 100 100 100 100 99 100 100
100 100 100 100 88 56 82 94 100 100 100 100 100 100 100 100 100 16 57 100 95 100 91 81 100 100 100 100 100 100 100 100 100 100 99 100 100 100 100 100 92 62 84
94 100 100 100 100 100 86 83 100 100 100 100 100 100 100 100 100 100 34 71 74 99 100 95 84 98 100 98 100 100 100 100 100 88 99 100 99 100 94 67 54 22 80
74 100 100 100 100 100 88 99 100 100 100 100 100 100 100 100 100 100 100 100 96 100 100 99 84 98 66 81 97 80 100 87 90 84 94 100 100 100 96 78 86 79 43
72 100 100 100 100 100 100 100 100 100 100 100 100 100 100 100 100 100 100 99 100 100 100 100 99 93 99 81 56 93 94 100 100 99 98 100 100 100 100 100 98 91 47
100 100 100 100 100 100 100 100 100 100 100 100 100 100 100 100 100 100 100 100 100 100 100 100 100 100 97 92 85 99 100 95 87 92 96 99 100 100 99 41 89 85 92
100 100 100 100 100 100 100 100 100 100 100 100 100 100 100 100 100 100 100 100 100 100 100 100 100 100 100 99 80 93 85 84 89 100 93 78 80 78 49 89 96 100 43

GFSSE_prec_cloud_180.txt.gz
Cloud_Cover
0 0 1 0 1 5 5 0 0 0 0 0 5 4 0 0 0 0 0 0 0 0 0 0 4 5 78 60 100 56 5 4 5 0 0 0 0 0 0 0 2 0 0
0 0 2 4 3 5 5 6 0 0 0 0 0 4 0 0 0 0 0 2 0 0 0 0 3 5 35 6 30 5 0 0 0 0 0 0 0 0 0 0 0 0 0
4 0 0 5 5 5 4 17 2 0 0 0 4 1 0 0 5 0 0 0 0 0 0 0 3 55 6 5 3 0 0 0 0 0 0 16 0 0 0 0 0 0 0
27 0 0 4 5 5 2 6 8 0 0 0 3 5 5 1 5 5 0 0 0 0 0 0 0 1 1 0 4 5 2 5 5 1 4 1 0 0 0 0 0 0 0
100 1 0 0 0 5 1 5 0 0 0 0 0 2 5 5 5 0 0 0 0 0 3 0 0 5 4 11 5 5 5 5 5 5 18 18 13 5 5 5 0 0 0
97 1 29 0 0 1 4 5 28 2 0 0 0 0 0 4 4 2 77 14 0 0 0 3 0 4 0 0 2 1 5 3 7 1 0 0 33 0 0 0 0 0 0
0 2 0 0 0 0 5 4 67 77 4 1 0 0 0 5 1 3 3 5 0 0 2 14 6 4 0 0 0 0 0 0 0 0 0 0 2 0 0 2 0 0 0
4 5 1 7 0 0 5 5 11 70 14 5 5 3 4 5 4 0 0 0 4 0 5 9 30 5 4 0 0 0 0 1 0 12 13 17 0 0 0 0 1 0 5
5 5 2 1 0 13 5 5 5 11 5 2 2 2 3 1 4 0 1 4 0 0 4 21 15 22 3 3 0 0 0 0 0 6 5 73 3 5 5 0 0 0 1
5 5 3 5 5 5 5 8 5 4 2 0 5 3 5 9 5 3 1 0 0 0 4 5 4 3 14 5 5 5 20 5 0 0 17 41 88 5 0 0 0 0 0
5 5 5 20 52 5 7 8 48 25 5 17 25 17 67 1 4 10 4 1 5 5 5 5 4 5 5 12 15 6 5 5 5 44 16 20 32 3 0 0 0 0 4
10 6 14 5 96 100 100 27 16 37 5 6 22 19 0 34 25 10 22 5 5 5 5 5 2 5 5 33 77 45 98 85 44 5 72 17 5 14 5 16 44 57 39
25 5 75 92 100 100 24 82 60 66 94 97 100 99 13 58 42 23 16 5 16 5 5 8 73 43 13 19 34 98 6 100 100 100 80 100 84 44 90 100 100 100 93
68 33 39 44 100 58 78 100 100 100 100 100 100 99 26 12 20 12 27 32 5 5 5 5 15 68 97 64 96 79 41 98 100 99 100 100 64 37 94 93 100 100 100
32 70 26 21 100 52 5 65 90 100 100 100 100 70 3 1 64 36 28 2 0 0 0 2 34 59 19 84 98 88 95 95 25 13 81 29 44 81 100 99 100 100 100
100 88 34 20 100 100 74 100 78 90 97 100 100 44 28 22 100 100 93 52 76 96 86 3 5 48 69 100 93 87 55 79 37 23 54 89 100 99 100 100 100 100 100
100 63 80 65 100 100 93 65 79 99 100 100 100 100 98 73 49 98 100 96 53 100 100 100 97 32 100 71 98 100 94 56 8 14 71 100 100 100 88 100 70 100 100
100 5 38 100 100 99 28 93 95 88 100 100 100 100 100 80 96 100 100 92 100 100 100 100 100 76 6 44 94 100 85 96 42 89 99 100 100 100 100 100 100 100 100
68 6 61 64 98 71 100 92 100 88 98 100 96 100 100 100 99 100 92 97 100 57 100 100 100 100 100 100 100 99 84 5 8 48 72 71 99 100 100 73 41 44 60
100 100 100 100 99 100 100 100 100 100 91 100 99 100 100 100 100 100 100 100 100 100 95 100 100 100 100 100 100 100 64 17 10 27 94 58 44 60 97 99 100 100 100
100 100 100 100 100 100 100 100 100 100 100 100 100 100 100 100 100 100 100 100 100 100 100 100 100 100 100 100 100 100 100 100 100 77 78 100 24 93 100 100 11 28 52
100 100 100 100 100 100 100 100 100 100 100 100 100 100 100 100 100 100 100 100 100 100 100 100 100 100 100 100 100 97 100 100 100 100 100 100 100 100 100 100 100 91 37
100 100 100 100 100 100 100 100 100 100 100 100 100 100 100 100 100 100 100 100 100 100 100 100 100 100 100 100 100 100 100 87 99 100 100 100 81 69 82 95 100 99 100
100 100 100 100 100 100 100 100 100 100 100 100 100 100 100 100 100 100 100 100 100 100 100 100 100 100 100 100 100 100 100 100 100 100 100 100 100 100 100 100 90 74 99
100 100 100 100 100 100 100 100 100 100 100 100 100 100 100 100 100 100 100 100 100 100 100 100 100 100 100 100 100 100 100 100 100 100 100 100 100 100 100 100 100 100 100
100 100 100 100 100 100 100 100 100 100 100 100 100 100 100 100 100 100 100 100 100 100 100 100 100 100 100 100 100 100 100 100 100 100 100 100 100 100 100 100 100 100 64

GFSSE_prec_cloud_183.txt.gz
Cloud_Cover
4 68 27 2 0 3 5 4 0 0 0 0 0 0 0 0 0 2 0 0 0 0 0 0 0 4 4 6 70 54 84 57 28 5 5 2 0 0 0 0 0 0 0
9 69 18 1 0 2 5 1 0 0 0 0 0 0 0 0 0 0 0 0 0 0 0 0 0 0 72 5 6 6 4 5 4 1 0 0 0 0 0 0 0 0 0
24 100 44 0 0 5 4 0 0 0 0 0 0 0 0 0 4 0 0 0 0 0 0 0 0 0 5 84 28 5 0 0 0 0 0 60 0 0 0 0 0 0 0
28 19 0 0 0 8 33 4 4 0 0 0 0 0 0 0 2 0 0 0 0 0 0 0 0 0 0 5 5 4 0 2 0 0 55 92 0 1 0 0 0 0 0
5 4 5 5 0 4 26 14 5 5 3 0 0 0 0 0 3 0 0 0 0 0 0 0 1 1 0 0 2 5 10 5 5 5 94 38 37 5 0 0 0 0 0
5 33 41 6 5 5 6 29 6 19 22 5 3 0 0 1 5 0 0 5 0 4 5 1 0 0 5 4 4 2 0 0 0 76 56 0 100 1 0 0 0 0 0
4 10 61 13 32 5 5 14 5 17 4 5 5 0 0 1 5 0 0 0 0 0 0 5 5 5 5 5 5 5 0 0 0 78 36 92 0 0 0 0 0 0 0
4 5 5 25 14 5 5 5 5 18 82 32 5 1 0 0 5 4 0 0 4 24 93 1 2 4 5 4 54 5 0 4 0 25 26 59 0 0 0 0 2 1 2
20 17 5 5 5 10 0 6 10 5 61 30 6 0 0 2 3 5 0 3 5 94 8 0 0 0 0 5 5 4 5 4 2 95 38 13 73 0 0 4 2 2 0
5 5 8 5 5 5 5 13 5 24 5 5 10 3 0 5 5 2 2 1 0 0 1 0 5 8 5 5 5 5 5 6 13 28 19 14 2 2 0 5 0 1 0
5 5 88 6 5 17 5 29 52 24 4 18 21 15 67 2 5 8 5 4 3 2 5 5 5 0 4 5 5 5 60 17 7 57 7 43 21 6 30 27 1 0 0
26 5 80 11 15 35 11 6 5 3 5 12 27 5 5 2 0 0 2 5 5 5 5 5 5 5 5 5 5 21 94 100 100 68 82 22 86 83 65 96 83 85 57
13 6 22 99 66 14 28 20 82 37 43 8 92 71 92 58 20 53 26 26 10 5 5 5 17 59 83 29 44 54 28 100 71 32 92 100 100 99 99 98 99 100 98
8 20 22 100 79 68 31 40 78 100 38 7 26 89 100 84 48 26 95 100 72 33 30 5 6 12 5 81 99 90 80 66 100 68 100 13 22 99 98 99 100 100 100
15 25 81 100 100 9 96 93 100 94 86 70 79 100 100 30 71 41 100 100 100 100 100 100 28 26 40 58 68 98 56 81 100 60 100 69 69 60 100 86 99 100 100
38 40 100 100 100 10 94 97 100 97 96 99 100 100 100 100 96 99 100 100 100 58 70 23 83 100 100 100 100 89 94 87 100 99 89 77 100 100 100 97 100 100 100
84 100 100 100 100 100 97 76 88 99 100 58 99 100 100 98 100 100 100 100 88 100 100 100 100 100 100 100 92 97 50 83 94 98 99 100 100 98 88 100 100 100 100
100 100 100 100 100 100 36 72 98 100 100 88 89 24 100 100 100 84 100 100 90 19 92 91 100 98 89 100 100 100 100 100 48 70 100 100 100 100 100 77 51 32 18
100 100 100 100 100 100 53 43 59 93 92 100 99 100 100 100 100 100 100 100 100 15 72 100 100 81 75 94 100 100 100 100 88 100 100 100 98 97 92 42 46 5 72
100 100 100 100 100 100 100 82 100 100 100 100 100 100 100 100 100 100 100 100 100 100 100 100 100 100 100 100 100 100 100 100 100 100 100 84 99 100 66 46 55 97 23
100 100 100 100 100 100 100 100 100 100 100 100 100 100 100 100 100 100 100 100 100 100 100 100 100 100 100 100 100 100 100 100 100 100 100 100 100 79 96 79 99 100 69
100 100 100 96 100 100 100 100 100 100 100 100 100 100 100 100 100 100 100 100 100 100 100 100 100 100 100 100 100 96 71 91 100 100 100 100 99 100 100 100 100 100 99
100 100 100 100 96 100 100 100 100 100 100 100 100 100 100 100 100 100 100 100 100 100 100 100 100 100 100 100 100 100 100 100 100 100 100 100 100 100 100 100 95 95 87
100 100 100 100 100 100 100 100 100 100 100 100 100 100 100 100 100 100 100 100 100 100 100 100 100 100 100 100 100 100 100 100 100 100 100 100 100 100 100 100 100 100 99
100 100 100 100 100 100 100 100 100 100 100 100 100 100 100 100 100 100 100 100 100 100 100 100 100 100 100 100 100 100 100 100 100 100 100 100 100 100 100 100 100 100 98
100 100 100 100 100 100 100 100 100 100 100 100 100 100 100 100 100 100 100 100 100 100 100 100 100 100 100 100 100 100 100 100 100 100 100 100 100 100 100 100 100 100 100